User: anonymous   Login
Location: Niverville
(49.6028°N, 97.0419°W)
Time: 11:45:28
(UTC-05:00)
Language:

Cosmos 1154 Rocket - Orbit

View from above orbital plane
View from above orbital plane
View from above satellite
View from above satellite

Ground track
Ground track

The orbit data is extracted from the following two-line orbital elements,

1 11683U 80008B   14285.63689244  .17627315 -92170-6  19122-3 0  5865
2 11683 081.1450 237.7805 0006383 253.6123 107.3011 16.50518428910984
Epoch (UTC): 12 October 2014 15:17:07
Eccentricity: 0.0006383
inclination: 81.1450°
perigee height: 134 km
apogee height: 142 km
right ascension of ascending node: 237.7805°
argument of perigee: 253.6123°
revolutions per day: 16.50518428
mean anomaly at epoch: 107.3011°
orbit number at epoch: 91098

The dashed part of the orbit path shows where the satellite is in the earth's shadow,  

DLR